Back to catalog

METEOR 2-11 DEB

AlivePO
NORAD 42454·DEBRIS·🇷🇺 Russia

Launched Jul 5, 1984 from Plesetsk Cosmodrome

Loading…

Next Passes (next 24 hours)

TLE

AgingSource: Space-Track

Epoch: Sep 3, 2026, 21:23 UTC

1 42454U 84072Q   26246.89165108  .00001393  00000-0  95294-3 0  9996
2 42454  82.5107 298.2084 0020046 105.6041 254.7341 13.98960599573679

Track METEOR 2-11 DEB in real time with AllMySat

Download on the App Store